Time,TemperatureF,DewpointF,PressureIn,WindDirection,WindDirectionDegrees,WindSpeedMPH,WindSpeedGustMPH,Humidity,HourlyPrecipIn,Conditions,Clouds,dailyrainin,SoftwareType,DateUTC
2013-12-23 00:01:00,38.0,34.0,29.48,West,277,7.0,11.0,85,0.00,,,0.14,weatherlink.com 1.10,2013-12-23 00:01:00,
2013-12-23 00:16:00,38.3,34.0,29.48,West,263,3.0,14.0,84,0.00,,,0.14,weatherlink.com 1.10,2013-12-23 00:16:00,
2013-12-23 00:31:00,38.5,34.0,29.48,WSW,257,4.0,17.0,84,0.00,,,0.14,weatherlink.com 1.10,2013-12-23 00:31:00,
2013-12-23 00:46:00,38.7,34.0,29.48,WSW,238,4.0,17.0,83,0.00,,,0.14,weatherlink.com 1.10,2013-12-23 00:46:00,
2013-12-23 01:01:00,38.6,34.0,29.47,WSW,242,4.0,10.0,83,0.00,,,0.14,weatherlink.com 1.10,2013-12-23 01:01:00,
2013-12-23 01:16:00,38.9,34.0,29.46,West,268,8.0,18.0,82,0.00,,,0.00,weatherlink.com 1.10,2013-12-23 01:16:00,
2013-12-23 01:31:00,39.2,34.0,29.46,SE,141,3.0,14.0,81,0.00,,,0.00,weatherlink.com 1.10,2013-12-23 01:31:00,
2013-12-23 01:46:00,39.5,34.0,29.45,WSW,250,2.0,12.0,80,0.00,,,0.00,weatherlink.com 1.10,2013-12-23 01:46:00,
2013-12-23 02:01:00,39.4,34.0,29.44,West,280,2.0,10.0,80,0.00,,,0.00,weatherlink.com 1.10,2013-12-23 02:01:00,
2013-12-23 02:16:00,39.8,34.0,29.43,West,278,2.0,9.0,79,0.00,,,0.00,weatherlink.com 1.10,2013-12-23 02:16:00,
2013-12-23 02:31:00,40.1,34.0,29.42,WSW,239,0.0,12.0,79,0.00,,,0.00,weatherlink.com 1.10,2013-12-23 02:31:00,
2013-12-23 02:46:00,40.4,34.0,29.41,SW,232,5.0,7.0,79,0.00,,,0.00,weatherlink.com 1.10,2013-12-23 02:46:00,
2013-12-23 03:01:00,40.9,35.0,29.40,WNW,285,4.0,12.0,78,0.00,,,0.00,weatherlink.com 1.10,2013-12-23 03:01:00,
2013-12-23 03:16:00,41.2,35.0,29.39,WSW,256,1.0,10.0,79,0.00,,,0.00,weatherlink.com 1.10,2013-12-23 03:16:00,
2013-12-23 03:31:00,41.3,36.0,29.38,SE,146,0.0,8.0,80,0.00,,,0.00,weatherlink.com 1.10,2013-12-23 03:31:00,
2013-12-23 03:46:00,40.7,35.0,29.36,East,98,2.0,2.0,80,0.00,,,0.00,weatherlink.com 1.10,2013-12-23 03:46:00,
2013-12-23 04:01:00,41.0,36.0,29.35,SE,140,0.0,3.0,81,0.00,,,0.00,weatherlink.com 1.10,2013-12-23 04:01:00,
2013-12-23 04:16:00,41.7,37.0,29.33,ESE,123,0.0,10.0,82,0.00,,,0.00,weatherlink.com 1.10,2013-12-23 04:16:00,
2013-12-23 04:31:00,40.7,35.0,29.31,ESE,105,2.0,3.0,81,0.00,,,0.00,weatherlink.com 1.10,2013-12-23 04:31:00,
2013-12-23 04:47:00,41.4,36.0,29.29,SSE,155,4.0,8.0,82,0.00,,,0.00,weatherlink.com 1.10,2013-12-23 04:47:00,
2013-12-23 05:02:00,41.8,37.0,29.27,SE,127,1.0,5.0,82,0.00,,,0.00,weatherlink.com 1.10,2013-12-23 05:02:00,
2013-12-23 05:17:00,42.0,37.0,29.24,SSE,150,2.0,5.0,83,0.00,,,0.00,weatherlink.com 1.10,2013-12-23 05:17:00,
2013-12-23 05:32:00,41.6,37.0,29.22,East,96,5.0,6.0,84,0.00,,,0.00,weatherlink.com 1.10,2013-12-23 05:32:00,
2013-12-23 05:47:00,41.6,37.0,29.19,East,79,1.0,8.0,85,0.00,,,0.00,weatherlink.com 1.10,2013-12-23 05:47:00,
2013-12-23 06:02:00,42.3,39.0,29.16,ESE,102,2.0,5.0,87,0.00,,,0.00,weatherlink.com 1.10,2013-12-23 06:02:00,
2013-12-23 06:17:00,43.5,40.0,29.13,WNW,284,1.0,12.0,86,0.00,,,0.00,weatherlink.com 1.10,2013-12-23 06:17:00,
2013-12-23 06:32:00,44.0,41.0,29.10,NE,53,5.0,11.0,88,0.00,,,0.00,weatherlink.com 1.10,2013-12-23 06:32:00,
2013-12-23 06:47:00,44.4,41.0,29.06,SE,129,3.0,12.0,88,0.02,,,0.02,weatherlink.com 1.10,2013-12-23 06:47:00,
2013-12-23 07:02:00,44.8,42.0,29.02,ESE,105,4.0,14.0,88,0.05,,,0.05,weatherlink.com 1.10,2013-12-23 07:02:00,
2013-12-23 07:17:00,45.4,42.0,28.99,ENE,78,4.0,13.0,89,0.09,,,0.09,weatherlink.com 1.10,2013-12-23 07:17:00,
2013-12-23 07:32:00,45.6,42.0,28.94,SW,236,5.0,18.0,88,0.13,,,0.13,weatherlink.com 1.10,2013-12-23 07:32:00,
2013-12-23 07:47:00,46.3,43.0,28.90,ESE,122,11.0,21.0,88,0.15,,,0.17,weatherlink.com 1.10,2013-12-23 07:47:00,
2013-12-23 08:02:00,47.3,44.0,28.86,SSE,159,5.0,21.0,87,0.15,,,0.20,weatherlink.com 1.10,2013-12-23 08:02:00,
2013-12-23 08:17:00,48.1,44.0,28.82,WSW,255,10.0,25.0,87,0.17,,,0.26,weatherlink.com 1.10,2013-12-23 08:17:00,
2013-12-23 08:33:00,48.8,45.0,28.80,ESE,121,12.0,22.0,87,0.13,,,0.27,weatherlink.com 1.10,2013-12-23 08:33:00,
2013-12-23 08:48:00,49.4,45.0,28.77,SW,236,8.0,22.0,86,0.10,,,0.28,weatherlink.com 1.10,2013-12-23 08:48:00,
2013-12-23 09:03:00,50.7,46.0,28.75,WSW,239,11.0,23.0,85,0.11,,,0.31,weatherlink.com 1.10,2013-12-23 09:03:00,
2013-12-23 09:18:00,51.3,47.0,28.73,SW,221,9.0,20.0,84,0.06,,,0.32,weatherlink.com 1.10,2013-12-23 09:18:00,
2013-12-23 09:33:00,52.2,48.0,28.70,WSW,250,17.0,28.0,84,0.08,,,0.35,weatherlink.com 1.10,2013-12-23 09:33:00,
2013-12-23 09:48:00,52.8,48.0,28.69,WSW,252,6.0,22.0,83,0.09,,,0.37,weatherlink.com 1.10,2013-12-23 09:48:00,
2013-12-23 10:03:00,53.2,49.0,28.68,West,266,10.0,27.0,84,0.11,,,0.42,weatherlink.com 1.10,2013-12-23 10:03:00,
2013-12-23 10:18:00,53.6,49.0,28.66,SW,236,17.0,30.0,84,0.19,,,0.51,weatherlink.com 1.10,2013-12-23 10:18:00,
2013-12-23 10:33:00,53.1,49.0,28.66,West,269,4.0,32.0,86,0.23,,,0.58,weatherlink.com 1.10,2013-12-23 10:33:00,
2013-12-23 10:48:00,53.0,49.0,28.65,WSW,242,15.0,23.0,86,0.21,,,0.58,weatherlink.com 1.10,2013-12-23 10:48:00,
2013-12-23 11:03:00,53.2,49.0,28.63,West,260,11.0,24.0,85,0.18,,,0.60,weatherlink.com 1.10,2013-12-23 11:03:00,
2013-12-23 11:18:00,53.6,49.0,28.62,SSW,212,9.0,24.0,83,0.12,,,0.63,weatherlink.com 1.10,2013-12-23 11:18:00,
2013-12-23 11:33:00,53.8,48.0,28.61,West,271,9.0,22.0,82,0.08,,,0.66,weatherlink.com 1.10,2013-12-23 11:33:00,
2013-12-23 11:48:00,53.2,49.0,28.59,WNW,284,8.0,26.0,84,0.08,,,0.67,weatherlink.com 1.10,2013-12-23 11:48:00,
2013-12-23 12:03:00,53.4,48.0,28.59,NNW,348,17.0,24.0,83,0.08,,,0.68,weatherlink.com 1.10,2013-12-23 12:03:00,
2013-12-23 12:18:00,53.5,48.0,28.58,SSW,207,7.0,22.0,82,0.06,,,0.69,weatherlink.com 1.10,2013-12-23 12:18:00,
2013-12-23 12:33:00,53.3,48.0,28.56,WSW,238,8.0,24.0,81,0.03,,,0.69,weatherlink.com 1.10,2013-12-23 12:33:00,
2013-12-23 12:48:00,53.4,48.0,28.56,SW,228,11.0,32.0,81,0.02,,,0.69,weatherlink.com 1.10,2013-12-23 12:48:00,
2013-12-23 13:03:00,53.0,47.0,28.55,West,274,6.0,25.0,80,0.02,,,0.69,weatherlink.com 1.10,2013-12-23 13:03:00,
2013-12-23 13:18:00,52.7,46.0,28.56,NW,305,7.0,27.0,79,0.01,,,0.69,weatherlink.com 1.10,2013-12-23 13:18:00,
2013-12-23 13:33:00,52.4,46.0,28.56,SSE,163,9.0,28.0,79,0.00,,,0.69,weatherlink.com 1.10,2013-12-23 13:33:00,
2013-12-23 13:48:00,52.1,45.0,28.56,ESE,117,9.0,19.0,78,0.00,,,0.69,weatherlink.com 1.10,2013-12-23 13:48:00,
2013-12-23 14:03:00,51.9,46.0,28.55,West,260,20.0,23.0,79,0.01,,,0.70,weatherlink.com 1.10,2013-12-23 14:03:00,
2013-12-23 14:18:00,51.7,45.0,28.55,West,281,4.0,22.0,79,0.01,,,0.70,weatherlink.com 1.10,2013-12-23 14:18:00,
2013-12-23 14:33:00,51.7,45.0,28.56,WNW,288,5.0,25.0,78,0.02,,,0.71,weatherlink.com 1.10,2013-12-23 14:33:00,
2013-12-23 14:48:00,51.4,45.0,28.55,WSW,257,2.0,17.0,78,0.02,,,0.71,weatherlink.com 1.10,2013-12-23 14:48:00,
2013-12-23 15:04:00,51.0,45.0,28.55,WSW,239,7.0,20.0,79,0.01,,,0.71,weatherlink.com 1.10,2013-12-23 15:04:00,
2013-12-23 15:18:00,51.0,44.0,28.55,NW,309,14.0,23.0,78,0.02,,,0.72,weatherlink.com 1.10,2013-12-23 15:18:00,
2013-12-23 15:34:00,50.8,44.0,28.55,WSW,250,17.0,21.0,78,0.01,,,0.72,weatherlink.com 1.10,2013-12-23 15:34:00,
2013-12-23 15:49:00,50.7,44.0,28.54,South,190,9.0,24.0,77,0.02,,,0.72,weatherlink.com 1.10,2013-12-23 15:49:00,
2013-12-23 16:04:00,50.6,43.0,28.52,West,270,12.0,24.0,75,0.03,,,0.74,weatherlink.com 1.10,2013-12-23 16:04:00,
2013-12-23 16:19:00,50.8,43.0,28.52,West,260,19.0,23.0,74,0.03,,,0.75,weatherlink.com 1.10,2013-12-23 16:19:00,
2013-12-23 16:34:00,50.8,43.0,28.50,NNW,335,3.0,26.0,75,0.03,,,0.75,weatherlink.com 1.10,2013-12-23 16:34:00,
2013-12-23 16:49:00,50.9,44.0,28.49,West,264,18.0,20.0,76,0.02,,,0.75,weatherlink.com 1.10,2013-12-23 16:49:00,
2013-12-23 17:04:00,51.2,44.0,28.48,West,271,13.0,27.0,77,0.02,,,0.76,weatherlink.com 1.10,2013-12-23 17:04:00,
2013-12-23 17:19:00,51.7,45.0,28.46,SSW,211,11.0,27.0,77,0.04,,,0.79,weatherlink.com 1.10,2013-12-23 17:19:00,
2013-12-23 17:34:00,52.1,44.0,28.45,WSW,249,13.0,22.0,75,0.04,,,0.79,weatherlink.com 1.10,2013-12-23 17:34:00,
2013-12-23 17:49:00,52.2,44.0,28.44,WSW,246,16.0,30.0,73,0.05,,,0.80,weatherlink.com 1.10,2013-12-23 17:49:00,
2013-12-23 18:04:00,51.8,44.0,28.42,SSW,195,13.0,24.0,74,0.06,,,0.82,weatherlink.com 1.10,2013-12-23 18:04:00,
2013-12-23 18:19:00,51.5,45.0,28.41,SW,235,9.0,31.0,77,0.06,,,0.85,weatherlink.com 1.10,2013-12-23 18:19:00,
2013-12-23 18:34:00,51.4,44.0,28.40,SSW,205,8.0,25.0,77,0.08,,,0.87,weatherlink.com 1.10,2013-12-23 18:34:00,
2013-12-23 18:49:00,50.8,45.0,28.38,West,273,7.0,21.0,81,0.06,,,0.87,weatherlink.com 1.10,2013-12-23 18:49:00,
2013-12-23 19:05:00,51.8,46.0,28.36,SW,231,11.0,23.0,80,0.05,,,0.87,weatherlink.com 1.10,2013-12-23 19:05:00,
2013-12-23 19:19:00,52.3,45.0,28.34,West,275,7.0,28.0,77,0.03,,,0.88,weatherlink.com 1.10,2013-12-23 19:19:00,
2013-12-23 19:34:00,52.2,45.0,28.33,WSW,250,8.0,25.0,77,0.05,,,0.91,weatherlink.com 1.10,2013-12-23 19:34:00,
2013-12-23 19:49:00,52.0,45.0,28.32,SW,227,11.0,24.0,78,0.06,,,0.93,weatherlink.com 1.10,2013-12-23 19:49:00,
2013-12-23 20:04:00,51.8,46.0,28.31,WSW,252,22.0,25.0,79,0.06,,,0.93,weatherlink.com 1.10,2013-12-23 20:04:00,
2013-12-23 20:19:00,51.5,45.0,28.30,West,259,11.0,22.0,79,0.06,,,0.94,weatherlink.com 1.10,2013-12-23 20:19:00,
2013-12-23 20:34:00,51.0,45.0,28.29,SSW,203,10.0,21.0,80,0.02,,,0.94,weatherlink.com 1.10,2013-12-23 20:34:00,
2013-12-23 20:49:00,51.0,45.0,28.28,SW,225,6.0,24.0,80,0.01,,,0.94,weatherlink.com 1.10,2013-12-23 20:49:00,
2013-12-23 21:04:00,51.2,45.0,28.27,SW,233,11.0,27.0,80,0.01,,,0.94,weatherlink.com 1.10,2013-12-23 21:04:00,
2013-12-23 21:19:00,50.2,46.0,28.25,SSW,209,13.0,25.0,85,0.01,,,0.94,weatherlink.com 1.10,2013-12-23 21:19:00,
2013-12-23 21:34:00,49.4,45.0,28.25,West,270,15.0,15.0,85,0.02,,,0.95,weatherlink.com 1.10,2013-12-23 21:34:00,
2013-12-23 21:49:00,48.9,45.0,28.24,SW,233,2.0,20.0,85,0.04,,,0.98,weatherlink.com 1.10,2013-12-23 21:49:00,
2013-12-23 22:04:00,48.8,45.0,28.24,WSW,240,4.0,20.0,85,0.05,,,0.98,weatherlink.com 1.10,2013-12-23 22:04:00,
2013-12-23 22:19:00,48.6,44.0,28.23,West,271,11.0,15.0,83,0.04,,,0.98,weatherlink.com 1.10,2013-12-23 22:19:00,
2013-12-23 22:34:00,48.4,43.0,28.23,WSW,248,7.0,21.0,82,0.03,,,0.99,weatherlink.com 1.10,2013-12-23 22:34:00,
2013-12-23 22:49:00,48.0,43.0,28.24,WSW,250,10.0,17.0,82,0.02,,,0.99,weatherlink.com 1.10,2013-12-23 22:49:00,
2013-12-23 23:04:00,47.1,43.0,28.24,SW,215,9.0,20.0,85,0.02,,,1.00,weatherlink.com 1.10,2013-12-23 23:04:00,
2013-12-23 23:19:00,46.9,42.0,28.23,West,269,7.0,24.0,83,0.02,,,1.00,weatherlink.com 1.10,2013-12-23 23:19:00,
2013-12-23 23:34:00,44.0,39.0,28.26,SE,131,8.0,28.0,81,0.02,,,1.02,weatherlink.com 1.10,2013-12-23 23:34:00,
2013-12-23 23:49:00,43.5,35.0,28.25,WSW,239,7.0,24.0,73,0.02,,,1.02,weatherlink.com 1.10,2013-12-23 23:49:00,